Vertical_Velocity
-0 -0 -0 -0 -0 -0 -1 -1 -1 -1 -2 -2 -2 -2 -2 -2 -2 -2 -2 -2 -1 -1 -2 -2 -2 -2 -3 -3 -3 -3 -4 -4 -4 -3 -3 -2 -3 -3 -4 -4 -3 -3 -4 -4 -4 -3 -2 -3 -6 -8 -9 -8 -6 -4 -2 -0 -0 -1 -2 -3 -2 -1 -0 -0 3 10 17 20 21
-1 -0 -0 -1 -1 -1 -1 -1 -1 -1 -1 -1 -1 -2 -2 -2 -2 -2 -2 -2 -2 -1 -2 -2 -2 -3 -3 -3 -3 -3 -3 -3 -4 -3 -2 -2 -2 -3 -4 -4 -3 -3 -3 -3 -2 -2 -2 -2 -4 -6 -8 -8 -6 -4 -2 -0 0 -0 -2 -4 -4 -3 -1 1 5 11 15 14 11
-1 -1 -1 -1 -1 -1 -1 -1 -1 -1 -1 -1 -1 -2 -2 -2 -2 -2 -2 -2 -2 -2 -2 -2 -3 -3 -3 -3 -3 -3 -3 -3 -3 -3 -2 -2 -2 -3 -3 -4 -3 -3 -3 -3 -2 -2 -1 -1 -2 -3 -5 -6 -6 -5 -3 -1 0 1 -0 -2 -4 -4 -3 1 6 10 12 9 8
-1 -1 -1 -1 -1 -0 -0 -1 -1 -1 -1 -1 -1 -2 -2 -2 -2 -2 -2 -2 -2 -2 -2 -2 -3 -3 -3 -3 -3 -3 -3 -3 -3 -3 -2 -2 -2 -3 -3 -4 -4 -3 -3 -3 -2 -2 -2 -1 -0 -1 -2 -3 -4 -4 -4 -2 -0 1 1 -0 -3 -4 -5 -4 -2 1 4 7 8
-1 -0 -0 -0 -0 -0 -0 -0 -0 -1 -1 -1 -1 -2 -2 -2 -2 -3 -3 -3 -2 -2 -2 -2 -2 -3 -3 -4 -4 -4 -4 -3 -3 -3 -3 -2 -2 -2 -3 -3 -4 -4 -3 -3 -3 -3 -3 -2 -1 -1 -1 -2 -2 -2 -2 -2 -0 1 1 1 -2 -4 -4 -4 -5 -2 0 1 3
-1 -1 -0 -0 -0 -0 -0 -0 -0 -0 -1 -1 -1 -2 -2 -2 -2 -2 -3 -3 -2 -2 -2 -2 -2 -3 -4 -4 -4 -4 -4 -4 -3 -3 -3 -3 -2 -2 -2 -3 -4 -4 -4 -4 -3 -4 -4 -4 -3 -3 -2 -2 -2 -2 -2 -1 0 2 3 3 1 -2 -4 -4 -3 -3 -3 -4 -2
-1 -1 -0 -0 -0 -0 -0 -0 -0 -0 -1 -1 -1 -2 -2 -2 -2 -2 -2 -2 -2 -2 -2 -2 -2 -3 -3 -4 -4 -4 -4 -4 -4 -3 -3 -3 -2 -2 -2 -2 -3 -4 -4 -4 -3 -3 -4 -4 -4 -4 -4 -3 -2 -2 -2 -2 -0 1 3 5 4 2 0 -1 -1 -2 -2 -2 -2
-1 -0 -0 -0 -0 -0 -0 -0 -0 -0 -1 -1 -1 -1 -2 -2 -2 -2 -2 -2 -2 -2 -2 -2 -2 -2 -2 -3 -4 -4 -4 -4 -4 -3 -3 -2 -2 -2 -2 -2 -3 -3 -4 -4 -3 -3 -3 -3 -4 -4 -4 -3 -3 -3 -3 -3 -2 -1 0 2 3 4 3 4 1 0 -0 -0 -1
-1 -1 -0 -0 -0 -0 -0 -0 -0 -0 -0 -1 -1 -1 -1 -2 -2 -2 -2 -2 -2 -2 -2 -2 -2 -2 -2 -2 -3 -3 -4 -4 -4 -4 -3 -2 -2 -2 -3 -3 -3 -4 -4 -4 -3 -3 -3 -3 -3 -4 -4 -3 -3 -3 -4 -4 -4 -2 -1 -0 1 2 1 0 0 1 1 2 1
-1 -1 -1 -0 -0 -0 -0 -0 -0 -0 -0 -1 -1 -1 -1 -1 -1 -2 -2 -2 -2 -2 -2 -2 -2 -2 -2 -2 -2 -3 -3 -3 -3 -3 -3 -2 -2 -2 -2 -3 -3 -4 -4 -4 -4 -3 -3 -3 -3 -3 -3 -3 -3 -3 -3 -4 -4 -3 -2 -1 -0 1 2 1 -1 -1 -0 1 1
-1 -1 -1 -0 -0 -0 -0 -0 -0 -0 -0 -1 -1 -1 -1 -1 -1 -1 -2 -2 -2 -2 -2 -2 -2 -2 -2 -2 -2 -2 -3 -3 -3 -3 -3 -2 -2 -2 -2 -2 -2 -3 -4 -4 -4 -4 -3 -3 -2 -3 -3 -3 -3 -3 -3 -4 -4 -3 -2 -1 -1 1 2 3 1 0 -0 -0 -0
-1 -1 -1 -0 -0 -0 -0 -0 -0 -0 -0 -1 -1 -1 -1 -1 -1 -1 -1 -1 -2 -2 -2 -2 -2 -2 -2 -2 -2 -2 -2 -2 -3 -3 -3 -3 -2 -2 -2 -2 -2 -3 -3 -4 -4 -4 -4 -3 -3 -2 -2 -3 -3 -3 -3 -3 -3 -2 -2 -2 -1 -0 1 3 3 2 1 1 0
-1 -1 -1 -0 -0 -0 -0 -0 -0 -0 -0 -1 -1 -1 -1 -1 -1 -1 -1 -1 -1 -2 -2 -2 -2 -2 -2 -2 -2 -2 -2 -2 -2 -2 -2 -3 -3 -2 -2 -2 -2 -2 -3 -4 -4 -4 -4 -4 -3 -3 -2 -2 -3 -3 -3 -3 -2 -2 -2 -2 -2 -1 -0 1 2 3 3 2 1
-1 -1 -1 -0 -0 -0 -0 -0 -0 -0 -0 -1 -1 -1 -1 -1 -1 -1 -1 -1 -1 -2 -2 -2 -2 -2 -2 -2 -2 -2 -2 -2 -2 -2 -2 -2 -3 -3 -3 -2 -2 -2 -2 -3 -3 -3 -4 -4 -4 -3 -2 -2 -2 -3 -3 -3 -2 -2 -2 -2 -1 -1 -1 -1 1 2 2 3 3
-0 -0 -0 -0 -0 0 0 -0 -0 -0 -0 -1 -1 -1 -1 -1 -1 -1 -1 -1 -1 -1 -1 -1 -2 -2 -2 -2 -2 -2 -2 -1 -2 -2 -2 -2 -2 -3 -3 -3 -2 -2 -2 -3 -3 -3 -3 -3 -4 -3 -2 -2 -2 -2 -2 -3 -3 -2 -2 -1 -1 -1 -1 -1 -1 0 1 2 2
-0 -0 -0 -0 -0 0 0 -0 -0 -0 -0 -1 -1 -1 -1 -1 -1 -1 -1 -2 -2 -2 -2 -2 -1 -1 -2 -2 -2 -2 -2 -1 -2 -2 -2 -2 -2 -2 -2 -2 -2 -2 -2 -2 -3 -3 -3 -3 -3 -3 -3 -2 -2 -1 -2 -2 -2 -2 -2 -1 -1 -1 -1 -1 -1 -1 -0 0 1
-0 -0 -0 -0 -0 0 0 0 -0 -0 -0 -1 -1 -1 -1 -2 -2 -2 -1 -2 -2 -2 -2 -2 -2 -1 -1 -2 -2 -2 -1 -2 -2 -2 -2 -2 -2 -2 -2 -2 -2 -2 -2 -2 -2 -3 -3 -3 -3 -3 -3 -3 -2 -2 -1 -1 -2 -2 -2 -2 -1 -1 -0 -0 -0 -1 -1 -1 -0
-0 -0 -0 -0 -0 -0 -0 0 0 -0 -0 -0 -1 -1 -1 -1 -2 -2 -2 -2 -2 -2 -2 -2 -2 -2 -1 -1 -2 -1 -1 -1 -2 -2 -2 -2 -2 -2 -2 -2 -2 -2 -2 -2 -2 -2 -2 -2 -3 -3 -3 -4 -3 -3 -2 -1 -1 -1 -2 -3 -2 -2 -1 -0 0 0 -0 -0 -0
-1 -1 -1 -0 -0 -0 -0 -0 -0 -0 -0 -0 -0 -1 -1 -1 -1 -2 -2 -2 -2 -2 -2 -2 -2 -2 -2 -1 -1 -1 -1 -1 -1 -1 -1 -2 -2 -2 -2 -2 -2 -2 -2 -2 -2 -2 -2 -2 -2 -3 -3 -3 -4 -3 -3 -2 -1 -1 -1 -2 -3 -2 -2 -1 -0 0 1 1 0
-1 -1 -1 -1 -1 -1 -0 -0 -0 -0 -0 -0 -0 -0 -1 -1 -1 -1 -2 -2 -1 -1 -1 -2 -2 -2 -2 -2 -1 -1 -1 -1 -1 -1 -1 -1 -1 -2 -2 -2 -2 -2 -1 -1 -1 -1 -2 -2 -2 -2 -3 -3 -3 -3 -3 -3 -2 -2 -1 -1 -1 -2 -2 -2 -2 -1 -0 1 1
-1 -1 -1 -1 -1 -1 -1 -0 -0 -0 -0 -0 -0 -0 -0 -1 -1 -1 -1 -1 -1 -1 -1 -1 -2 -2 -2 -2 -2 -1 -1 -1 -1 -1 -1 -1 -1 -1 -1 -2 -2 -2 -2 -1 -1 -1 -1 -1 -2 -2 -2 -2 -2 -2 -2 -2 -2 -2 -2 -1 -1 -1 -1 -2 -2 -2 -2 -1 -0
-1 -1 -1 -1 -1 -1 -1 -1 -0 -0 -0 -0 -0 -0 -0 -0 -1 -1 -1 -1 -1 -1 -1 -1 -1 -1 -2 -2 -2 -2 -2 -1 -1 -1 -1 -1 -1 -1 -1 -1 -1 -2 -2 -2 -2 -2 -2 -2 -1 -2 -2 -2 -2 -2 -2 -2 -2 -2 -2 -2 -1 -1 -1 -1 -1 -1 -1 -2 -1
-1 -1 -1 -1 -1 -1 -1 -1 -1 -0 -0 -0 -0 -0 -0 -0 -0 -0 -1 -1 -1 -1 -1 -1 -1 -1 -1 -1 -2 -2 -2 -2 -1 -1 -1 -1 -1 -1 -1 -1 -1 -2 -2 -2 -2 -2 -2 -2 -2 -2 -1 -1 -2 -2 -2 -1 -1 -1 -1 -2 -1 -1 -1 -1 -1 -1 -1 -1 -1
-0 -1 -1 -1 -1 -1 -1 -1 -1 -1 -1 -0 -0 -0 -0 -0 -0 -0 -0 -0 -1 -1 -1 -1 -1 -1 -1 -1 -1 -1 -1 -1 -1 -1 -1 -1 -1 -1 -1 -1 -1 -1 -2 -2 -2 -2 -2 -2 -2 -2 -2 -1 -1 -1 -1 -1 -1 -1 -1 -1 -1 -1 -1 -1 -1 -1 -1 -1 -1
-1 -1 -1 -1 -1 -1 -1 -1 -1 -1 -1 -1 -1 -0 -0 -0 -0 -0 -0 -0 -0 -0 -0 -0 -0 -0 -1 -1 -1 -1 -1 -1 -1 -1 -1 -1 -1 -1 -1 -1 -1 -1 -1 -2 -2 -2 -2 -2 -2 -2 -2 -2 -1 -1 -1 -1 -1 -1 -1 -1 -1 -1 -0 -0 -1 -1 -1 -1 -0
-1 -1 -1 -1 -1 -1 -1 -1 -1 -1 -1 -1 -1 -1 -1 -0 -0 -0 -0 -0 -0 -0 -0 -0 -0 -0 -0 -1 -1 -1 -1 -1 -1 -1 -1 -1 -1 -1 -1 -1 -1 -1 -1 -1 -2 -2 -2 -2 -2 -2 -2 -2 -2 -1 -1 -1 -1 -0 -1 -1 -1 -1 -0 -0 -0 -0 -0 -0 -0
-1 -1 -1 -1 -1 -1 -1 -1 -1 -1 -1 -1 -1 -1 -1 -1 -0 -0 -0 -1 -0 -0 -0 -0 -0 -0 -0 -0 -1 -1 -1 -1 -1 -1 -1 -0 -1 -1 -1 -1 -1 -1 -1 -1 -1 -1 -2 -2 -2 -2 -2 -2 -2 -2 -2 -1 -1 -1 -0 -0 -0 -0 -0 -1 -1 -1 -0 -0 -0
-1 -1 -1 -1 -1 -1 -1 -1 -1 -1 -1 -1 -1 -1 -1 -1 -1 -1 -1 -1 -0 -0 -0 -0 -0 -0 -0 -0 -0 -1 -1 -1 -1 -1 -1 -0 -0 -0 -1 -1 -2 -2 -1 -1 -1 -1 -2 -2 -2 -2 -2 -2 -2 -3 -2 -2 -2 -2 -1 -1 -1 -0 -0 -0 -1 -1 -1 -1 -1
-1 -1 -1 -1 -1 -1 -1 -0 -0 -1 -1 -1 -1 -1 -1 -1 -1 -1 -1 -1 -1 -0 -0 -0 -0 -0 -0 -0 -0 -0 -1 -1 -1 -1 -1 -1 -0 -0 -0 -1 -1 -2 -2 -2 -2 -2 -2 -2 -2 -2 -2 -2 -2 -3 -3 -3 -3 -3 -2 -2 -2 -1 -1 -0 -0 -0 -1 -1 -1
-1 -1 -1 -1 -1 -1 -1 -0 -0 -0 -0 -1 -1 -1 -1 -1 -1 -1 -1 -1 -1 -1 -0 -0 0 0 0 -0 -0 -0 -0 -1 -1 -1 -1 -1 -1 -0 -0 -0 -0 -1 -1 -2 -2 -2 -2 -2 -2 -2 -2 -2 -3 -3 -3 -3 -3 -3 -3 -3 -3 -3 -2 -2 -1 -0 -0 -0 -1
-0 -0 -0 -0 -0 -0 -0 -0 -0 -0 -0 -1 -1 -1 -1 -1 -1 -1 -1 -1 -1 -1 -1 -0 0 0 0 0 0 0 -0 -0 -0 -1 -1 -1 -1 -1 -1 -0 -0 -0 -0 -1 -1 -2 -2 -2 -2 -2 -3 -3 -3 -3 -3 -3 -3 -3 -4 -4 -4 -4 -4 -3 -2 -2 -1 -0 -0
-0 -0 -0 -0 -0 -0 -0 -0 -0 -0 -0 -0 -0 -1 -1 -1 -1 -1 -1 -1 -1 -1 -1 -0 -0 0 0 0 1 1 0 0 -0 -0 -1 -1 -1 -1 -1 -1 -0 -0 -0 -0 -1 -1 -2 -2 -2 -2 -3 -3 -3 -3 -3 -3 -3 -3 -3 -3 -4 -4 -4 -4 -4 -3 -3 -2 -1
0 0 0 0 -0 -0 -0 -0 -0 -0 -0 -0 -0 -0 -0 -1 -1 -1 -1 -1 -1 -1 -1 -1 -0 -0 0 0 1 1 1 0 0 -0 -0 -1 -1 -1 -1 -2 -1 -1 -1 -0 -0 -1 -1 -1 -2 -2 -2 -2 -3 -3 -3 -3 -3 -3 -3 -3 -3 -3 -4 -4 -4 -4 -4 -4 -2
0 0 0 0 0 0 -0 -0 -0 -0 -0 -0 -0 -0 -0 -0 -0 -0 -1 -1 -1 -1 -1 -1 -0 -0 -0 0 1 1 1 1 0 0 -0 -0 -0 -1 -1 -1 -2 -2 -1 -1 -1 -1 -1 -1 -1 -1 -2 -2 -2 -2 -3 -3 -3 -3 -3 -3 -3 -3 -3 -4 -4 -4 -4 -4 -4
1 1 1 0 0 0 0 -0 -0 -0 -0 -0 -0 -0 -0 -0 -0 -0 -0 -0 -0 -1 -1 -1 -1 -0 -0 0 0 1 1 1 1 0 0 -0 -0 -1 -1 -1 -2 -2 -2 -2 -2 -1 -1 -1 -1 -1 -1 -1 -2 -2 -2 -2 -3 -3 -3 -3 -3 -3 -3 -3 -4 -4 -4 -5 -5
1 1 1 0 0 0 -0 -0 -0 -0 -0 -0 -0 -0 -0 -0 -0 -0 -0 -0 -0 -0 -1 -1 -1 -0 -0 -0 0 0 0 0 0 0 0 0 -0 -0 -1 -1 -1 -1 -2 -2 -2 -2 -2 -2 -1 -1 -1 -1 -1 -1 -2 -2 -2 -3 -3 -3 -3 -4 -4 -4 -4 -4 -4 -4 -5
1 1 1 0 0 -0 -0 -0 -0 -0 -0 -0 -0 -0 -0 -0 -0 -0 -0 -0 -0 -0 -0 -1 -1 -1 -1 -1 -0 -0 0 0 0 -0 -0 -0 -0 -0 -1 -1 -1 -1 -1 -1 -2 -2 -2 -2 -2 -2 -2 -1 -1 -1 -1 -1 -2 -2 -3 -3 -3 -3 -4 -4 -4 -4 -4 -4 -4
1 1 1 0 0 -0 -0 -0 -0 -0 -1 -1 -1 -1 -0 -0 -0 -0 -0 -0 0 -0 -0 -0 -0 -1 -1 -1 -0 -0 -0 -0 -0 -0 -0 -0 -0 -0 -0 -1 -1 -1 -1 -1 -1 -1 -2 -2 -2 -2 -2 -2 -2 -2 -2 -1 -2 -2 -2 -2 -3 -3 -3 -4 -4 -4 -4 -4 -5
1 1 1 0 -0 -0 -0 -0 -0 -1 -1 -1 -1 -1 -1 -0 -0 -0 -0 -0 -0 -0 -0 -0 -0 -0 -0 -0 -0 -0 -0 -0 -0 -0 -0 -0 -0 -0 -0 -0 -1 -1 -1 -1 -1 -1 -1 -2 -2 -2 -2 -2 -2 -2 -2 -2 -2 -2 -2 -2 -2 -3 -3 -3 -4 -4 -4 -5 -5
1 1 0 0 -0 -0 -0 -0 -1 -1 -1 -1 -1 -1 -1 -1 -0 -0 -0 -0 -0 -0 -0 -0 -0 -0 -0 -0 -0 -0 -1 -1 -0 -0 -0 -0 -0 -0 -0 -0 -1 -1 -1 -1 -1 -1 -1 -1 -2 -2 -2 -3 -3 -3 -3 -3 -3 -3 -2 -2 -2 -3 -3 -3 -3 -4 -4 -4 -4
1 0 0 0 -0 -0 -0 -0 -1 -1 -1 -0 -1 -1 -1 -1 -0 -0 -0 -0 -0 -0 -0 -0 -0 -0 -0 -0 -0 -0 -1 -0 -0 -0 -0 -0 -0 -0 -1 -1 -1 -1 -1 -1 -1 -1 -1 -1 -1 -2 -2 -2 -3 -3 -3 -4 -4 -4 -4 -3 -3 -3 -3 -4 -4 -3 -3 -4 -4
Height
5687 5686 5686 5685 5684 5683 5681 5681 5679 5678 5676 5676 5674 5673 5671 5670 5669 5667 5666 5665 5663 5662 5660 5659 5657 5655 5654 5652 5650 5648 5646 5644 5641 5639 5636 5634 5631 5629 5626 5624 5621 5619 5616 5613 5611 5608 5605 5602 5600 5597 5594 5592 5590 5587 5585 5582 5579 5577 5576 5575 5574 5574 5573 5573 5571 5571 5571 5572 5572
5686 5685 5684 5683 5682 5681 5680 5679 5678 5676 5675 5674 5673 5671 5670 5669 5667 5666 5665 5663 5662 5661 5659 5657 5656 5654 5652 5651 5649 5647 5645 5643 5641 5639 5636 5634 5631 5629 5626 5624 5621 5619 5617 5614 5612 5609 5606 5604 5601 5599 5596 5594 5592 5590 5587 5585 5582 5580 5579 5578 5577 5577 5577 5576 5575 5575 5576 5576 5575
5684 5683 5682 5681 5681 5680 5679 5678 5676 5675 5674 5673 5671 5670 5669 5667 5666 5665 5663 5662 5661 5659 5658 5656 5655 5653 5651 5650 5648 5646 5645 5643 5641 5639 5636 5634 5631 5629 5626 5624 5622 5620 5617 5615 5613 5611 5608 5605 5603 5601 5598 5597 5595 5593 5590 5588 5585 5583 5581 5581 5580 5580 5580 5579 5579 5579 5580 5579 5578
5682 5681 5681 5680 5679 5678 5677 5676 5675 5674 5673 5671 5670 5669 5668 5666 5665 5663 5662 5661 5660 5658 5657 5656 5654 5652 5651 5649 5647 5646 5644 5642 5641 5638 5636 5634 5631 5629 5627 5625 5622 5620 5618 5616 5614 5611 5609 5607 5604 5602 5600 5599 5597 5595 5593 5591 5588 5586 5585 5584 5583 5583 5583 5582 5582 5583 5583 5582 5581
5681 5680 5679 5678 5677 5676 5676 5675 5674 5673 5671 5670 5669 5668 5666 5665 5664 5662 5661 5660 5658 5657 5656 5654 5653 5651 5650 5648 5646 5645 5643 5642 5640 5638 5636 5634 5632 5630 5627 5625 5623 5621 5618 5616 5614 5612 5610 5608 5606 5604 5602 5600 5599 5597 5596 5594 5592 5590 5588 5586 5586 5586 5586 5585 5585 5584 5584 5584 5584
5679 5678 5677 5676 5676 5675 5674 5673 5672 5671 5670 5669 5668 5667 5666 5664 5663 5661 5660 5659 5657 5656 5655 5653 5652 5650 5649 5647 5646 5644 5643 5641 5640 5638 5636 5634 5632 5630 5628 5625 5623 5621 5619 5617 5615 5613 5611 5609 5607 5605 5603 5601 5600 5599 5598 5596 5595 5593 5592 5590 5588 5587 5587 5587 5586 5586 5586 5586 5588
5677 5676 5676 5675 5674 5673 5672 5671 5671 5670 5669 5668 5666 5666 5664 5663 5661 5660 5659 5658 5656 5655 5654 5652 5651 5650 5648 5646 5645 5644 5642 5641 5639 5637 5636 5634 5632 5630 5628 5626 5624 5621 5619 5617 5615 5613 5612 5610 5608 5606 5604 5603 5602 5601 5599 5598 5597 5595 5594 5593 5592 5590 5589 5589 5588 5588 5588 5588 5589
5675 5674 5674 5673 5672 5671 5671 5670 5669 5668 5667 5666 5665 5664 5663 5662 5661 5659 5658 5656 5655 5654 5653 5651 5650 5649 5647 5646 5645 5643 5642 5640 5639 5637 5636 5634 5632 5630 5628 5626 5624 5622 5620 5618 5616 5614 5612 5611 5609 5608 5606 5604 5603 5602 5601 5600 5598 5597 5595 5594 5593 5592 5591 5591 5590 5589 5589 5590 5590
5673 5672 5672 5671 5671 5670 5669 5668 5667 5666 5666 5665 5664 5663 5662 5661 5660 5658 5657 5656 5654 5653 5652 5651 5649 5648 5647 5646 5644 5643 5641 5640 5639 5637 5636 5634 5632 5630 5628 5626 5625 5623 5621 5619 5617 5615 5613 5612 5610 5609 5607 5606 5604 5603 5602 5601 5600 5598 5597 5595 5594 5592 5591 5591 5591 5591 5591 5591 5591
5671 5671 5670 5669 5669 5668 5667 5666 5666 5665 5664 5663 5662 5661 5661 5659 5658 5657 5656 5655 5653 5652 5651 5649 5648 5647 5646 5645 5644 5642 5641 5640 5638 5637 5635 5634 5632 5631 5629 5627 5625 5623 5621 5620 5617 5616 5614 5612 5611 5610 5608 5607 5605 5604 5603 5601 5601 5600 5598 5597 5595 5594 5593 5592 5592 5591 5592 5592 5592
5669 5669 5668 5667 5667 5666 5666 5665 5664 5663 5663 5662 5661 5660 5659 5658 5657 5656 5655 5654 5652 5651 5650 5648 5647 5646 5645 5644 5643 5642 5641 5639 5638 5636 5635 5634 5632 5631 5629 5627 5626 5624 5622 5620 5618 5616 5615 5613 5612 5611 5609 5608 5606 5605 5604 5603 5602 5601 5600 5599 5597 5596 5595 5594 5593 5593 5593 5593 5593
5667 5667 5666 5666 5665 5664 5664 5663 5662 5662 5661 5660 5659 5659 5658 5657 5656 5655 5654 5653 5651 5650 5649 5647 5646 5645 5644 5643 5642 5641 5640 5639 5637 5636 5635 5633 5632 5631 5629 5627 5626 5624 5622 5621 5619 5617 5616 5614 5613 5611 5610 5609 5607 5606 5605 5604 5603 5602 5601 5600 5599 5597 5596 5596 5595 5595 5595 5595 5595
5665 5665 5664 5664 5663 5662 5662 5661 5661 5660 5659 5659 5658 5657 5656 5655 5654 5653 5652 5651 5651 5649 5648 5647 5646 5644 5643 5642 5641 5640 5639 5638 5637 5636 5635 5633 5632 5631 5629 5627 5626 5624 5623 5621 5620 5618 5617 5615 5614 5612 5611 5610 5609 5607 5606 5605 5604 5603 5602 5601 5601 5599 5598 5597 5596 5596 5596 5596 5596
5663 5663 5662 5662 5661 5661 5660 5660 5659 5658 5658 5657 5656 5655 5655 5654 5653 5652 5651 5650 5649 5648 5647 5646 5645 5643 5642 5641 5641 5640 5639 5638 5636 5636 5634 5633 5631 5630 5629 5627 5626 5625 5623 5622 5620 5619 5617 5616 5615 5613 5612 5611 5610 5609 5607 5606 5606 5605 5604 5603 5602 5601 5600 5599 5599 5598 5598 5597 5598
5661 5661 5660 5660 5659 5659 5658 5658 5657 5657 5656 5655 5655 5654 5653 5652 5651 5651 5650 5649 5648 5647 5646 5645 5644 5643 5641 5641 5640 5639 5638 5637 5636 5635 5634 5633 5631 5630 5629 5627 5626 5625 5623 5622 5621 5620 5618 5617 5616 5614 5613 5612 5611 5610 5608 5607 5607 5606 5605 5604 5604 5603 5602 5602 5601 5600 5600 5599 5599
5659 5659 5658 5658 5657 5657 5656 5656 5656 5655 5654 5654 5653 5652 5651 5651 5650 5649 5648 5647 5646 5646 5645 5644 5643 5642 5641 5640 5639 5638 5637 5636 5635 5634 5633 5632 5631 5630 5629 5627 5626 5625 5624 5622 5621 5620 5619 5617 5616 5615 5614 5613 5611 5611 5610 5609 5608 5607 5606 5606 5605 5605 5604 5603 5603 5602 5602 5601 5601
5657 5656 5656 5656 5656 5655 5655 5654 5654 5653 5652 5652 5651 5650 5650 5649 5648 5647 5647 5646 5645 5644 5643 5643 5642 5641 5640 5639 5638 5637 5636 5635 5635 5634 5633 5632 5631 5630 5629 5627 5626 5625 5624 5623 5621 5621 5619 5618 5617 5616 5615 5613 5612 5611 5611 5610 5609 5608 5607 5607 5606 5606 5605 5605 5604 5604 5604 5603 5603
5655 5654 5654 5654 5653 5653 5653 5652 5652 5651 5651 5650 5649 5649 5648 5647 5646 5646 5645 5645 5644 5643 5642 5641 5641 5640 5639 5638 5637 5636 5635 5635 5634 5633 5632 5631 5630 5629 5628 5627 5626 5625 5624 5623 5621 5621 5620 5618 5617 5616 5615 5614 5613 5612 5611 5611 5610 5609 5608 5608 5607 5606 5606 5606 5605 5605 5605 5605 5605
5652 5652 5652 5651 5651 5651 5651 5650 5650 5649 5649 5648 5647 5647 5646 5646 5645 5644 5644 5643 5642 5641 5641 5640 5639 5638 5638 5637 5636 5635 5634 5634 5633 5632 5631 5631 5630 5629 5628 5627 5626 5625 5624 5623 5621 5621 5620 5619 5618 5616 5616 5615 5613 5613 5612 5611 5610 5610 5609 5608 5608 5607 5607 5606 5606 5606 5606 5606 5606
5650 5650 5650 5649 5649 5649 5649 5648 5648 5647 5647 5646 5646 5645 5645 5644 5643 5643 5642 5641 5641 5640 5640 5639 5638 5637 5636 5636 5635 5634 5634 5633 5632 5631 5631 5630 5629 5628 5627 5626 5626 5624 5623 5622 5621 5621 5620 5619 5618 5617 5616 5615 5614 5613 5612 5611 5611 5610 5609 5609 5608 5608 5607 5607 5606 5606 5606 5606 5606
5648 5648 5647 5647 5647 5647 5646 5646 5646 5645 5645 5644 5644 5643 5643 5642 5642 5641 5641 5640 5639 5639 5638 5637 5637 5636 5636 5635 5634 5633 5632 5632 5631 5630 5630 5629 5628 5627 5626 5626 5625 5624 5623 5622 5621 5620 5619 5618 5617 5617 5616 5615 5614 5613 5613 5612 5611 5611 5610 5609 5609 5608 5607 5607 5607 5606 5606 5606 5606
5646 5646 5645 5645 5645 5645 5644 5644 5644 5643 5643 5642 5642 5641 5641 5641 5640 5640 5639 5638 5638 5637 5637 5636 5636 5635 5634 5634 5633 5632 5631 5631 5630 5629 5629 5628 5627 5626 5626 5625 5624 5623 5622 5622 5621 5620 5619 5618 5617 5616 5616 5615 5614 5614 5613 5612 5611 5611 5610 5609 5609 5608 5608 5607 5607 5606 5606 5606 5606
5643 5643 5643 5643 5642 5642 5642 5642 5641 5641 5641 5641 5640 5640 5639 5639 5638 5638 5637 5637 5636 5636 5635 5635 5634 5634 5633 5632 5632 5631 5631 5630 5629 5628 5627 5627 5626 5626 5625 5624 5623 5623 5622 5621 5620 5619 5618 5618 5617 5616 5616 5615 5614 5613 5613 5612 5612 5611 5611 5610 5609 5608 5608 5607 5607 5606 5606 5606 5606
5641 5641 5641 5641 5640 5640 5640 5640 5639 5639 5639 5638 5638 5637 5637 5637 5636 5636 5636 5635 5635 5634 5634 5633 5633 5632 5631 5631 5631 5630 5629 5629 5628 5627 5626 5626 5625 5625 5624 5623 5622 5622 5621 5620 5619 5619 5618 5617 5616 5616 5615 5614 5614 5613 5612 5612 5611 5611 5611 5610 5609 5609 5608 5607 5607 5606 5606 5606 5606
5639 5639 5638 5638 5638 5638 5638 5637 5637 5637 5636 5636 5636 5636 5635 5635 5634 5634 5634 5633 5633 5633 5632 5632 5631 5631 5630 5630 5629 5629 5628 5628 5627 5626 5626 5625 5624 5623 5623 5622 5621 5621 5620 5620 5619 5618 5617 5617 5616 5615 5615 5614 5613 5613 5612 5611 5611 5610 5610 5610 5609 5609 5608 5608 5607 5606 5606 5606 5606
5636 5636 5636 5636 5636 5636 5636 5635 5635 5635 5634 5634 5634 5633 5633 5633 5632 5632 5632 5631 5631 5631 5631 5630 5630 5629 5629 5628 5628 5627 5627 5626 5626 5625 5625 5624 5623 5622 5622 5621 5621 5620 5619 5619 5618 5617 5617 5616 5616 5615 5614 5613 5613 5612 5611 5611 5610 5609 5609 5609 5608 5608 5608 5607 5607 5606 5606 5606 5605
5634 5634 5634 5634 5634 5633 5633 5633 5633 5632 5632 5632 5631 5631 5631 5631 5630 5630 5630 5630 5629 5629 5629 5628 5628 5627 5627 5626 5626 5626 5625 5625 5624 5624 5624 5623 5622 5621 5621 5620 5620 5619 5618 5618 5617 5616 5616 5616 5615 5614 5613 5613 5612 5612 5611 5611 5610 5609 5608 5608 5607 5607 5606 5606 5606 5606 5606 5605 5605
5632 5632 5631 5631 5631 5631 5631 5631 5631 5630 5630 5630 5629 5629 5629 5628 5628 5628 5628 5627 5627 5627 5627 5626 5626 5626 5625 5625 5625 5624 5624 5623 5623 5622 5622 5622 5621 5621 5620 5619 5618 5618 5617 5617 5616 5616 5615 5615 5614 5613 5613 5612 5611 5611 5611 5610 5609 5609 5608 5607 5606 5606 5605 5605 5605 5605 5605 5605 5604
5629 5629 5629 5629 5629 5629 5629 5628 5628 5628 5628 5627 5627 5627 5626 5626 5626 5626 5626 5625 5625 5625 5625 5625 5624 5624 5624 5623 5623 5622 5622 5621 5621 5621 5621 5620 5620 5619 5619 5618 5617 5617 5616 5616 5615 5615 5614 5613 5613 5612 5612 5611 5611 5610 5610 5609 5609 5608 5607 5607 5606 5606 5605 5604 5604 5603 5603 5603 5603
5627 5627 5626 5626 5626 5626 5626 5626 5626 5626 5625 5625 5625 5625 5624 5624 5624 5624 5623 5623 5623 5623 5623 5622 5622 5622 5622 5621 5621 5621 5620 5620 5619 5619 5619 5619 5618 5618 5617 5617 5616 5616 5615 5614 5614 5613 5613 5612 5612 5611 5611 5610 5610 5609 5609 5608 5608 5607 5607 5606 5606 5605 5605 5604 5603 5602 5602 5601 5601
5624 5624 5624 5624 5624 5624 5624 5624 5623 5623 5623 5623 5623 5622 5622 5622 5622 5621 5621 5621 5621 5621 5621 5620 5620 5620 5620 5620 5619 5619 5618 5618 5618 5617 5617 5617 5616 5616 5616 5616 5615 5614 5614 5613 5613 5612 5611 5611 5611 5610 5609 5609 5608 5608 5608 5607 5607 5606 5606 5606 5605 5605 5604 5603 5603 5602 5601 5601 5600
5621 5621 5621 5621 5621 5621 5621 5621 5621 5621 5621 5621 5621 5620 5620 5620 5620 5619 5619 5619 5619 5618 5618 5618 5618 5618 5618 5618 5617 5617 5617 5616 5616 5616 5615 5615 5615 5614 5614 5614 5613 5613 5612 5612 5611 5611 5610 5610 5609 5609 5608 5607 5607 5607 5606 5606 5606 5605 5605 5605 5604 5604 5603 5603 5602 5601 5601 5600 5599
5619 5619 5619 5619 5619 5619 5619 5619 5619 5618 5618 5618 5618 5618 5618 5618 5617 5617 5617 5616 5616 5616 5616 5616 5616 5616 5616 5616 5616 5615 5615 5615 5614 5614 5613 5613 5613 5612 5612 5612 5611 5611 5611 5610 5610 5609 5609 5608 5608 5607 5607 5606 5606 5605 5605 5605 5604 5604 5603 5603 5603 5602 5602 5602 5601 5601 5600 5600 5599
5616 5616 5616 5616 5616 5616 5616 5616 5616 5616 5616 5616 5616 5616 5616 5616 5615 5615 5615 5614 5614 5614 5614 5614 5614 5614 5613 5613 5613 5613 5613 5613 5612 5612 5611 5611 5611 5611 5610 5610 5609 5609 5608 5608 5608 5607 5607 5607 5606 5606 5606 5605 5604 5604 5603 5603 5603 5602 5602 5602 5601 5601 5601 5600 5600 5600 5599 5599 5598
5614 5614 5614 5614 5614 5614 5614 5614 5614 5614 5613 5613 5613 5613 5613 5613 5613 5613 5612 5612 5612 5611 5611 5611 5611 5611 5611 5611 5611 5611 5611 5611 5611 5610 5610 5609 5609 5609 5608 5608 5607 5607 5606 5606 5606 5606 5605 5605 5605 5604 5604 5603 5603 5602 5602 5601 5601 5601 5600 5600 5600 5599 5599 5599 5598 5598 5597 5597 5597
5611 5611 5611 5611 5611 5611 5611 5611 5611 5611 5611 5611 5611 5611 5611 5611 5610 5610 5610 5610 5610 5609 5609 5609 5609 5609 5609 5609 5609 5609 5609 5608 5608 5608 5608 5607 5607 5607 5607 5606 5606 5605 5605 5604 5604 5603 5603 5603 5602 5602 5602 5601 5601 5601 5600 5600 5600 5599 5599 5598 5598 5597 5597 5596 5596 5596 5596 5595 5595
5608 5608 5608 5608 5608 5608 5608 5608 5608 5608 5608 5608 5608 5608 5608 5608 5608 5607 5607 5607 5607 5607 5607 5607 5606 5606 5606 5606 5606 5606 5606 5606 5606 5606 5606 5605 5605 5605 5605 5604 5604 5603 5603 5602 5602 5601 5601 5601 5600 5600 5600 5599 5599 5599 5598 5598 5598 5597 5597 5596 5596 5595 5595 5594 5594 5594 5593 5593 5593
5606 5606 5606 5606 5606 5606 5606 5606 5606 5606 5606 5606 5606 5606 5605 5605 5605 5605 5605 5605 5605 5605 5605 5604 5604 5604 5604 5604 5604 5604 5604 5604 5603 5603 5603 5603 5603 5603 5603 5602 5602 5601 5601 5601 5600 5600 5599 5599 5598 5598 5597 5597 5597 5596 5596 5596 5596 5595 5595 5595 5594 5593 5593 5592 5592 5591 5591 5591 5591
5603 5603 5603 5603 5603 5603 5603 5603 5603 5603 5603 5603 5603 5603 5603 5603 5602 5602 5602 5602 5602 5602 5602 5602 5602 5602 5601 5601 5601 5601 5601 5601 5601 5601 5601 5601 5601 5601 5600 5600 5600 5599 5599 5598 5598 5597 5597 5596 5596 5596 5595 5595 5594 5594 5594 5594 5593 5593 5593 5592 5592 5591 5591 5591 5590 5590 5589 5589 5588
5600 5600 5600 5600 5600 5600 5600 5600 5600 5600 5600 5600 5600 5600 5600 5600 5600 5600 5600 5599 5599 5599 5599 5600 5600 5599 5599 5599 5599 5599 5599 5599 5599 5599 5599 5598 5598 5598 5598 5597 5597 5597 5596 5596 5596 5595 5595 5594 5594 5593 5593 5592 5592 5592 5591 5591 5591 5591 5591 5590 5590 5590 5589 5589 5588 5588 5587 5587 5586
5597 5597 5597 5598 5598 5598 5598 5598 5598 5598 5598 5598 5597 5597 5597 5597 5597 5597 5597 5597 5597 5597 5597 5597 5597 5597 5597 5597 5597 5597 5597 5597 5596 5596 5596 5596 5596 5596 5595 5595 5595 5594 5594 5593 5593 5593 5592 5592 5591 5591 5591 5590 5590 5589 5589 5589 5588 5588 5588 5588 5587 5587 5587 5587 5586 5586 5585 5585 5584